Regional Weather Roundup
Issued by NWS Charleston, SC

Current Version | Previous Version | Graphics & Text | Print | Product List | Glossary On
Versions: 1 2 3 4 5 6 7 8 9 10 11 12 13 14 15 16 17 18 19 20 21 22 23 24 25 26 27 28 29 30 31 32 33 34 35 36 37 38 39 40 41 42 43 44 45 46 47 48 49 50
000
ASUS42 KCHS 171612
RWRCHS

REGIONAL WEATHER ROUNDUP
NATIONAL WEATHER SERVICE CHARLESTON SC
1200 PM EDT THU AUG 17 2017

NOTE: "FAIR" INDICATES FEW OR NO CLOUDS BELOW 12,000 FEET WITH NO
SIGNIFICANT WEATHER AND/OR OBSTRUCTIONS TO VISIBILITY.

NOT ALL STATIONS ARE QUALITY CONTROLLED. USE DATA WITH CAUTION...
ESPECIALLY DEWPOINT OBSERVATIONS.

SCZ027-030-031-034>040-042>050-171700-
...SOUTHEAST SOUTH CAROLINA...

CITY           SKY/WX    TMP DP  RH WIND       PRES   REMARKS
N CHARLESTON   MOSUNNY   93  77  59 W7        30.04S HX 107
WATERFRONT PRK   N/A    N/A N/A N/A VRB3      29.89F
JOHNS ISLAND   FAIR      93  79  62 SW5       30.04F HX 110
PINOPOLIS        N/A     90  81  74 CALM      29.97F HX 108
MONCKS CORNER  FAIR      90  75  62 SW3       30.04S HX 100
SUMMERVILLE    FAIR      91  77  62 NW3       30.05S HX 105
BEAUFORT MCAS  MOSUNNY   94  78  60 W8        30.05F HX 110
BEAUFORT ARPT  FAIR      93  75  55 W6        30.05F HX 104
HILTON HEAD IS MOSUNNY   93  77  59 CALM      30.06F HX 107
WALTERBORO     MOSUNNY   90  75  62 W8        30.05F HX 100
ALLENDALE      NOT AVBL

...SOUTHERN MIDLANDS AND PEE DEE...

CITY           SKY/WX    TMP DP  RH WIND       PRES   REMARKS
GEORGETOWN     FAIR      91  77  62 W5        30.05S HX 105
KINGSTREE      FAIR      91  75  59 SW5       30.03F HX 102
ORANGEBURG     PTSUNNY   93  74  53 W9        30.04F HX 103
BARNWELL       FAIR      93  77  59 SW6       30.06S HX 107
AIKEN          FAIR      90  73  58 SW7       30.10S HX  98
MANNING        FAIR      90  77  66 CALM      30.04S HX 102
COLUMBIA       MOSUNNY   95  74  50 W8        30.03F HX 105
SUMTER         MOSUNNY   93  72  50 S7        30.01F HX 101
FLORENCE       SUNNY     92  78  63 SW9       30.03F HX 107
MYRTLE BEACH   MOSUNNY   90  81  74 SE9       30.05S HX 108
N MYRTLE BEACH MOSUNNY   86  81  85 S9        30.04S HX 102

$$

GAZ063-065-086>088-099>101-113>116-118-119-134>141-150-171700-
...SOUTHEAST GEORGIA...

CITY           SKY/WX    TMP DP  RH WIND       PRES   REMARKS
SAVANNAH ARPT  MOSUNNY   94  76  55 VRB6      30.06F HX 106
HUNTER AAF     MOSUNNY   93  76  57 NW7       30.03F HX 106
FORT STEWART   PTSUNNY   93  74  54 CALM      30.04F HX 102
STATESBORO     PTSUNNY   92  71  50 NW6       30.07S HX  99
SYLVANIA       MOSUNNY   93  78  62 NW6       30.07F HX 108
CLAXTON        PTSUNNY   93  77  58 W7        30.07S HX 106

...CSRA...CENTRAL AND FAR SOUTHEAST GEORGIA...

CITY           SKY/WX    TMP DP  RH WIND       PRES   REMARKS
THOMSON        MOSUNNY   89  74  61 NW7       30.12F HX  99
AUGUSTA-BUSH   PTSUNNY   94  76  55 W8        30.05S HX 106
AUGUSTA-DANIEL PTSUNNY   92  72  51 VRB5      30.07F HX  99
SWAINSBORO     FAIR      91  75  59 W6        30.08F HX 102
VIDALIA        MOSUNNY   90  73  58 W8        30.09S HX  98
EASTMAN        PTSUNNY   90  65  43 W6        30.11F HX  92
HAZLEHURST     PTSUNNY   92  61  35 NW6       30.07F HX  92
ALMA           MOSUNNY   93  75  55 W9        30.08F HX 104
WAYCROSS       PTSUNNY   91  73  55 NW5       30.08S HX  98
JESUP          PTSUNNY   93  73  52 N6        30.07F HX 102
BAXLEY         PTSUNNY   90  73  58 W7        30.08S HX  98
BRUNSWICK      MOSUNNY   90  73  58 W5        30.07F HX  98
SAINT SIMONS   MOSUNNY   93  76  57 VRB6      30.06F HX 105

$$

SCZ027-028-034-036>038-045-046-048>050-GAZ119-141-171700-
...LAKE AND SUPPLEMENTAL COASTAL OBSERVATIONS...

STATION/POSITION TIME  TEMP    WIND        PRES    WAVE   SWELL
                       AIR SEA DIR/SP/G            HT/PER HT/PER/DIR
                 (UTC) (F)     (DEG/KT/KT) (MB)    (FT/S) (FT/S/D)
WINYAH BAY       1445   90     180/  1     1017.0
LAKE MURRAY      1520   88     270/  7/  9 1016.6S
ACE BASIN NERRS  1445   92     210/  1     1018.0
FORT PULASKI     1542   89 86  290/  5/  6 1018.3F
SAPELO ISLAND    1500   92     310/  2     1018.0

$$

ANZ835-935-AMZ111-154-330-350-352-354-370-450-454-472-171700-
...C-MAN AND BUOY OBSERVATIONS...

STATION/POSITION TIME  TEMP    WIND        PRES    WAVE   SWELL
                       AIR SEA DIR/SP/G            HT/PER HT/PER/DIR
                 (UTC) (F)     (DEG/KT/KT) (MB)    (FT/S) (FT/S/D)
BUOY 41004       1550      85  240/  6/  8 1017.4S   2/ 5   2/230/ 5
BUOY 41008       1450   85 85  270/  6/  8 1018.0    1/ 4
FOLLY BEACH CMAN 1500   88     200/  6/  8 1018.1R
CAPERS NEARSHORE 1508   86 86  240/  6/ 10 1017.4R
FRIPP NEARSHORE  1508   87     250/  6/  8 1017.8R


STATION/POSITION TIME  TEMP    WIND        PRES    WAVE   SWELL
                       AIR SEA DIR/SP/G            HT/PER HT/PER/DIR
                 (UTC) (F)     (DEG/KT/KT) (MB)    (FT/S) (FT/S/D)
5E ST. MARYS GA  NOT AVBL
FRYING PAN BUOY  1550   84     180/  4/  6 1017.5S   1/ 5   2/220/ 5
BUOY 41025       1550   79 83   40/  4/  6 1018.0R   2/ 7   2/100/ 7
CAPE LOOKOUT NC  1500   82     110/  4/  4 1017.8R
BUOY 41002       1550   83 84  270/ 10/ 12 1018.2F   3/ 5   2/230/ 5
BUOY 41010       1550   85 86  260/  4/  6 1019.2R   2/ 8   2/ 70/ 8
ST AUGUSTINE FL  1600   90 81  300/  2/  4 1018.9F


$$



USA.gov is the U.S. government's official web portal to all federal, state and local government web resources and services.